Regional Weather Roundup
Issued by NWS Sterling, VA

Home | Current Version | Previous Version | Graphics & Text | Print | Product List | Glossary On
Versions: 1 2 3 4 5 6 7 8 9 10 11 12 13 14 15 16 17 18 19 20 21 22 23 24 25 26 27
000
ASUS41 KLWX 290411
RWRLWX

REGIONAL WEATHER ROUNDUP
NATIONAL WEATHER SERVICE BALTIMORE MD/WASHINGTON DC
1200 AM EDT SAT APR 29 2017

Note: "FAIR" indicates few or no clouds below 12,000 feet
with no significant weather and/or obstructions to visibility.
 TC=TEMPERATURE CELSIUS

 * =Non NWS site. Station does not report precipitation (e.g. rain,
    snow, etc.), thunder, or fog.

DCZ001-MDZ009-015-VAZ040>042-051-053>054-290500-
WASHINGTON METRO

CITY           SKY/WX    TMP DP  RH WIND       PRES   REMARKS
WASHINGTON NAT CLOUDY    72  68  87 S6        30.03R
DULLES         CLOUDY    71  62  73 SE5       30.00F
ANDREWS AFB    CLOUDY    69  66  89 S8        30.02S
FT BELVOIR     CLOUDY    66  62  87 SE3       30.01S
QUANTICO       CLOUDY    72  68  87 CALM      30.03R
COLLEGE PARK*  CLOUDY    69  64  83 CALM      30.02S
LEESBURG*      CLOUDY    72  66  83 S3        30.02F
MANASSAS*        N/A     68  64  87 S3        30.01F

$$

MDZ006>007-011-014-290500-
BALTIMORE METRO

CITY           SKY/WX    TMP DP  RH WIND       PRES   REMARKS
BWI AIRPORT    MOCLDY    72  68  87 SE5       30.03R
MD SCIENCE CTR   N/A     74  63  68 MISG      30.04R
MARTIN STATE   MOCLDY    70  64  83 CALM      30.05R
ANNAPOLIS      CLOUDY    72  69  90 S5        30.04R
FORT MEADE*    MOCLDY    66  63  88 SE3       30.05S

$$

MDZ012-015-019>023-290500-
MARYLAND EASTERN SHORE

CITY           SKY/WX    TMP DP  RH WIND       PRES   REMARKS
OCEAN CITY     FOG       62  61  96 S8        30.08R VSB 3/4
SALISBURY      CLEAR     69  69 100 S7        30.05F
BAY BRIDGE AP* CLOUDY    72  68  88 S5        30.04R
CAMBRIDGE*     CLEAR     72  70  94 S7        30.05R
EASTON*        PTCLDY    73  68  84 S6        30.08S

$$

MDZ017>025-290500-
SOUTHERN MARYLAND

CITY           SKY/WX    TMP DP  RH WIND       PRES   REMARKS
PATUXENT RIVER CLOUDY    67  67 100 SE3       30.04S
ST INIGOES     CLEAR     72  68  87 SE8       30.03S
LEONARDTOWN*   PTCLDY    72  66  83 S3        30.06R

$$

MDZ003>005-290500-
NORTH CENTRAL MARYLAND

CITY           SKY/WX    TMP DP  RH WIND       PRES   REMARKS
FREDERICK*     CLOUDY    72  64  78 CALM      30.04
HAGERSTOWN APT CLOUDY    74  62  66 SE6       30.00R
WESTMINSTER*   CLOUDY    72  64  78 SE10      30.04R

$$

MDZ501>502-290500-
WESTERN MARYLAND

CITY           SKY/WX    TMP DP  RH WIND       PRES   REMARKS
OAKLAND*       CLOUDY    63  52  67 SE6       30.05S
CUMBERLAND*    CLOUDY    70  59  68 NW5       30.02S

$$

VAZ025>031-290500-
SHENANDOAH VALLEY

CITY           SKY/WX    TMP DP  RH WIND       PRES   REMARKS
WINCHESTER*    CLOUDY    70  59  68 S3        29.99F
FRONT ROYAL*   CLOUDY    72  59  64 CALM      29.97F
LURAY*         CLOUDY    72  59  64 SW6       30.00F
NEW MARKET*    CLOUDY    68  59  73 W3        29.99F
STAUNTON*      CLOUDY    67  60  80 S5        30.04F
WAYNESBORO*    CLOUDY    72  64  76 S7        30.04F

$$

WVZ021-048>050-054>055-290500-
EASTERN WEST VIRGINIA PANHANDLE

CITY           SKY/WX    TMP DP  RH WIND       PRES   REMARKS
MARTINSBURG    CLOUDY    71  60  68 CALM      29.98S
PETERSBURG*    CLOUDY    64  60  86 E3        29.99S

$$

VAZ036>039-050-290500-
CENTRAL FOOTHILLS

CITY           SKY/WX    TMP DP  RH WIND       PRES   REMARKS
CHARLOTTESVILL CLOUDY    73  64  73 S8        30.01F
CULPEPER*      PTCLDY    67  64  89 CALM      30.01F
ORANGE*        CLEAR     68  63  83 S3        30.02F
GORDONSVILLE*  CLEAR     66  64  93 CALM      30.02F
WARRENTON*     CLOUDY    70  61  72 SE5       30.00F

$$

VAZ055>057-290500-
NORTH AND CENTRAL PIEDMONT

CITY           SKY/WX    TMP DP  RH WIND       PRES   REMARKS
FREDERICKSBRG* CLOUDY    70  65  84 CALM      30.02R
STAFFORD*      CLOUDY    64  64  99 CALM      30.07R

$$

NCZ024-NYZ072-PAZ021-071-VAZ022-071-290500-
OTHER REGIONAL OBSERVATIONS

CITY           SKY/WX    TMP DP  RH WIND       PRES   REMARKS
NEW YORK CITY  MOCLDY    75  45  34 CALM      30.06F
PHILADELPHIA   MOCLDY    69  58  67 S3        30.06R
PITTSBURGH     TSTM      58  52  80 NE13      30.05F
ROANOKE        CLEAR     76  63  64 SW5       30.08S
RICHMOND       PTCLDY    73  69  87 S7        30.05S
RALEIGH        PTCLDY    78  71  79 SW13G22   30.10R

$$

ANZ530>537-290500-
MARINE OBSERVATIONS

STATION/POSITION TIME  TEMP    WIND        PRES
                       AIR SEA DIR/SP/G
                 (UTC) (F)     (DEG/KT/KT) (MB)
THOMAS PT LIGHT  0400   64 61  270/  5/  6   N/A
BALT KEY BRIDGE  0348   71     130/  6/  8 1017.1R
COVE POINT       0348   67     190/ 13/ 16 1017.8F
LEWISETTA        0348   72 69  190/  6/  7 1017.1R
SOLOMONS ISLAND  0348   67 63  110/  5/  8   N/A
PINEY POINT      0348          170/  8/  9   N/A

$$





USA.gov is the U.S. government's official web portal to all federal, state and local government web resources and services.